Calgary Springbank,

4:13 PM MST on December 14, 2017 (GMT -0700)
Calgary Springbank

Weather History for CYBW - May, 2013

Change the Weather History Date:

Thursday, May 16, 2013

  Actual Average Record
Temperature  
Mean Temperature 45 °F -  
Max Temperature 60 °F 59 °F 82 °F (2006)
Min Temperature 30 °F 37 °F 24 °F (2002)
Degree Days  
Heating Degree Days 20    
Moisture  
Dew Point 37 °F    
Average Humidity 70    
Maximum Humidity 100    
Minimum Humidity 32    
Precipitation  
Precipitation 0.04 in - - ()
Sea Level Pressure  
Sea Level Pressure 29.99 in    
Wind  
Wind Speed 9 mph ()    
Max Wind Speed 18 mph    
Max Gust Speed 24 mph    
Visibility 15.6 miles    
Events Rain    
Averages and records for this station are not official NWS values.
T = Trace of Precipitation, MM = Missing Value Source: Averaged Metar Reports

Daily Weather History Graph

Daily Weather History Graph

Search for Another Location

Airport or City:

Trip Planner

Search our weather history database for the weather conditions in past years. The results will help you decide how hot, cold, wet, or windy it might be!

Date:

Astronomy

May. 16, 2013 Rise Set
Actual Time 5:45 AM MDT 9:23 PM MDT
Civil Twilight 5:04 AM MDT 10:04 PM MDT
Nautical Twilight 4:08 AM MDT 11:01 PM MDT
Astronomical Twilight 2:45 AM MDT 12:26 AM MDT
Moon 11:36 AM MDT (5/16) 1:34 AM MDT (5/16)
Length of Visible Light 17h 00m
Length of Day
15h 38m
Waxing Crescent, 36% of the Moon is Illuminated
May 16
Waxing Crescent
May 17
First Quarter
May 24
Full
May 31
Last Quarter
Jun 8
New

Hourly Weather History & Observations

Time (MDT) Temp. Windchill Dew Point Humidity Pressure Visibility Wind Dir Wind Speed Gust Speed Precip Events Conditions
5:00 AM 30.2 °F 23.4 °F 26.6 °F 86% 29.96 in 20.0 mi NW 6.9 mph - N/A   Mostly Cloudy
6:00 AM 33 °F - 28 °F 76% 29.97 in 28 mi NNW 10.4 mph - -   Partly Cloudy
6:00 AM 33.8 °F 25.8 °F 28.4 °F 81% 29.97 in 30.0 mi NNW 10.4 mph - N/A   Mostly Cloudy
7:00 AM 35.6 °F 29.2 °F 30.2 °F 81% 29.96 in 30.0 mi NW 8.1 mph - N/A   Mostly Cloudy
8:00 AM 42.8 °F 37.0 °F 32.0 °F 66% 29.96 in 30.0 mi NW 10.4 mph - N/A   Overcast
9:00 AM 48.2 °F - 32.0 °F 54% 29.98 in 30.0 mi NW 12.7 mph - N/A   Overcast
10:00 AM 51.8 °F - 33.8 °F 50% 29.97 in 30.0 mi NW 10.4 mph - N/A   Mostly Cloudy
11:00 AM 53.6 °F - 33.8 °F 47% 29.98 in 30.0 mi North 4.6 mph - N/A   Mostly Cloudy
12:00 PM 56 °F - 34 °F 32% 29.97 in 28 mi NE 8.1 mph - -   Mostly Cloudy
12:00 PM 55.4 °F - 33.8 °F 44% 29.97 in 30.0 mi ENE 4.6 mph - N/A   Mostly Cloudy
12:08 PM 57.2 °F - 35.6 °F 44% 29.96 in 30.0 mi NNE 10.4 mph - N/A   Mostly Cloudy
1:00 PM 59.0 °F - 33.8 °F 39% 29.94 in 30.0 mi ESE 11.5 mph - N/A   Mostly Cloudy
2:00 PM 55.4 °F - 33.8 °F 44% 29.95 in 30.0 mi East 3.5 mph - N/A   Mostly Cloudy
2:24 PM 51.8 °F - 35.6 °F 54% 29.96 in 20.0 mi NNW 18.4 mph 24.2 mph N/A Rain Light Rain Showers
3:00 PM 50.0 °F - 39.2 °F 66% 29.99 in 20.0 mi WNW 13.8 mph 19.6 mph N/A Rain Light Rain Showers
4:00 PM 48.2 °F - 41.0 °F 76% 29.99 in 20.0 mi NW 4.6 mph - N/A Rain Light Rain Showers
4:16 PM 50.0 °F - 42.8 °F 76% 29.99 in 25.0 mi North 10.4 mph - N/A   Mostly Cloudy
4:20 PM 50.0 °F - 42.8 °F 76% 29.99 in 25.0 mi North 12.7 mph - N/A Rain Light Rain Showers
5:00 PM 48.2 °F - 41.0 °F 76% 30.01 in 25.0 mi NNE 16.1 mph - N/A   Mostly Cloudy
5:53 PM 46.4 °F 39.2 °F 41.0 °F 81% 30.04 in 10.0 mi NNW 18.4 mph - N/A Rain Light Rain Showers
6:00 PM 45 °F - 41 °F 80% 30.04 in 7 mi NNW 16.1 mph - - Rain Light Rain Showers
6:00 PM 44.6 °F 37.8 °F 41.0 °F 87% 30.04 in 8.0 mi North 15.0 mph 21.9 mph N/A Rain Light Rain Showers
6:42 PM 42.8 °F 35.8 °F 42.8 °F 100% 30.05 in 8.0 mi NW 13.8 mph - N/A Rain Rain
7:00 PM 44.6 °F 39.7 °F 42.8 °F 93% 30.04 in 15.0 mi NNW 9.2 mph - N/A Rain Rain
8:00 PM 44.6 °F 38.4 °F 41.0 °F 87% 30.02 in 20.0 mi North 12.7 mph - N/A Rain Light Rain
8:29 PM 44.6 °F 40.7 °F 41.0 °F 87% 30.02 in 20.0 mi NNE 6.9 mph - N/A   Mostly Cloudy
9:00 PM 41.0 °F 35.2 °F 39.2 °F 93% 30.02 in 20.0 mi WNW 9.2 mph - N/A   Mostly Cloudy
10:00 PM 37.4 °F 32.1 °F 35.6 °F 93% 29.95 in 15.0 mi West 6.9 mph - N/A   Partly Cloudy